Private Wetterstation Sandau
Wetterdaten: Dienstag, 11.12.2012
Datum Zeit Temp. A. Feuchte A. Luftdruck Regen Wind Richtung Richtung Taupunkt Windchill
11.12.2012 00:01 -3,1 C 88 % 1016,7 hPa 0,0 l/m 0,0 km/h (0 Bft) N-NO 22 -4,8 C -3,1 C
11.12.2012 00:06 -3,1 C 88 % 1016,6 hPa 0,0 l/m 0,0 km/h (0 Bft) N-NO 22 -4,8 C -3,1 C
11.12.2012 00:11 -3,1 C 88 % 1016,7 hPa 0,0 l/m 0,0 km/h (0 Bft) N-NO 22 -4,8 C -3,1 C
11.12.2012 00:16 -3,1 C 88 % 1016,7 hPa 0,0 l/m 0,0 km/h (0 Bft) N-NO 22 -4,8 C -3,1 C
11.12.2012 00:21 -3,1 C 88 % 1016,8 hPa 0,0 l/m 0,0 km/h (0 Bft) N-NO 22 -4,8 C -3,1 C
11.12.2012 00:26 -3,1 C 88 % 1016,8 hPa 0,0 l/m 0,0 km/h (0 Bft) N-NO 22 -4,8 C -3,1 C
11.12.2012 00:31 -3,1 C 88 % 1017,1 hPa 0,0 l/m 0,0 km/h (0 Bft) N-NO 22 -4,8 C -3,1 C
11.12.2012 00:36 -3,1 C 89 % 1016,9 hPa 0,0 l/m 0,0 km/h (0 Bft) N-NO 22 -4,6 C -3,1 C
11.12.2012 00:41 -3,1 C 89 % 1017,1 hPa 0,0 l/m 0,0 km/h (0 Bft) N-NO 22 -4,6 C -3,1 C
11.12.2012 00:46 -3,1 C 89 % 1017,1 hPa 0,0 l/m 0,0 km/h (0 Bft) N-NO 22 -4,6 C -3,1 C
11.12.2012 00:51 -3,1 C 89 % 1017,0 hPa 0,0 l/m 0,0 km/h (0 Bft) N-NO 22 -4,6 C -3,1 C
11.12.2012 00:56 -3,0 C 89 % 1017,1 hPa 0,0 l/m 0,0 km/h (0 Bft) N-NO 22 -4,6 C -3,0 C
11.12.2012 01:01 -3,0 C 89 % 1016,9 hPa 0,0 l/m 0,0 km/h (0 Bft) N-NO 22 -4,6 C -3,0 C
11.12.2012 01:06 -3,0 C 89 % 1017,1 hPa 0,0 l/m 0,0 km/h (0 Bft) N-NO 22 -4,6 C -3,0 C
11.12.2012 01:11 -3,0 C 89 % 1017,2 hPa 0,0 l/m 0,0 km/h (0 Bft) N-NO 22 -4,6 C -3,0 C
11.12.2012 01:16 -3,1 C 89 % 1017,2 hPa 0,0 l/m 0,0 km/h (0 Bft) N-NO 22 -4,6 C -3,1 C
11.12.2012 01:21 -3,0 C 89 % 1017,3 hPa 0,0 l/m 0,0 km/h (0 Bft) N-NO 22 -4,6 C -3,0 C
11.12.2012 01:26 -3,0 C 90 % 1017,1 hPa 0,0 l/m 0,0 km/h (0 Bft) N-NO 22 -4,4 C -3,0 C
11.12.2012 01:31 -2,9 C 90 % 1017,1 hPa 0,0 l/m 0,0 km/h (0 Bft) N-NO 22 -4,3 C -2,9 C
11.12.2012 01:36 -2,9 C 90 % 1017,2 hPa 0,0 l/m 0,0 km/h (0 Bft) N-NO 22 -4,3 C -2,9 C
11.12.2012 01:41 -2,8 C 90 % 1017,2 hPa 0,0 l/m 0,0 km/h (0 Bft) N-NO 22 -4,2 C -2,8 C
11.12.2012 01:46 -2,8 C 90 % 1017,3 hPa 0,0 l/m 0,0 km/h (0 Bft) N-NO 22 -4,2 C -2,8 C
11.12.2012 01:51 -2,8 C 89 % 1017,4 hPa 0,0 l/m 0,0 km/h (0 Bft) N-NO 22 -4,4 C -2,8 C
11.12.2012 01:56 -2,8 C 89 % 1017,5 hPa 0,0 l/m 0,0 km/h (0 Bft) N-NO 22 -4,4 C -2,8 C
11.12.2012 02:01 -2,8 C 89 % 1017,5 hPa 0,0 l/m 0,0 km/h (0 Bft) N-NO 22 -4,4 C -2,8 C
11.12.2012 02:06 -2,7 C 90 % 1017,5 hPa 0,0 l/m 0,0 km/h (0 Bft) N-NO 22 -4,1 C -2,7 C
11.12.2012 02:11 -2,7 C 90 % 1017,5 hPa 0,0 l/m 0,0 km/h (0 Bft) N-NO 22 -4,1 C -2,7 C
11.12.2012 02:16 -2,7 C 90 % 1017,7 hPa 0,0 l/m 0,0 km/h (0 Bft) N-NO 22 -4,1 C -2,7 C
11.12.2012 02:21 -2,6 C 90 % 1017,6 hPa 0,0 l/m 0,0 km/h (0 Bft) N-NO 22 -4,0 C -2,6 C
11.12.2012 02:26 -2,5 C 90 % 1017,6 hPa 0,0 l/m 0,0 km/h (0 Bft) N-NO 22 -3,9 C -2,5 C
11.12.2012 02:31 -2,4 C 90 % 1017,8 hPa 0,0 l/m 0,0 km/h (0 Bft) N-NO 22 -3,8 C -2,4 C
11.12.2012 02:36 -2,4 C 90 % 1018,0 hPa 0,0 l/m 0,0 km/h (0 Bft) N-NO 22 -3,8 C -2,4 C
11.12.2012 02:41 -2,3 C 90 % 1017,7 hPa 0,0 l/m 0,0 km/h (0 Bft) N-NO 22 -3,7 C -2,3 C
11.12.2012 02:46 -2,2 C 90 % 1017,9 hPa 0,0 l/m 0,0 km/h (0 Bft) N-NO 22 -3,6 C -2,2 C
11.12.2012 02:51 -2,2 C 90 % 1017,9 hPa 0,0 l/m 0,0 km/h (0 Bft) N-NO 22 -3,6 C -2,2 C
11.12.2012 02:56 -2,1 C 91 % 1018,1 hPa 0,0 l/m 0,0 km/h (0 Bft) N-NO 22 -3,4 C -2,1 C
11.12.2012 03:01 -2,0 C 91 % 1017,8 hPa 0,0 l/m 0,0 km/h (0 Bft) N-NO 22 -3,3 C -2,0 C
11.12.2012 03:06 -1,9 C 91 % 1017,9 hPa 0,0 l/m 0,0 km/h (0 Bft) N-NO 22 -3,2 C -1,9 C
11.12.2012 03:11 -1,9 C 91 % 1017,9 hPa 0,0 l/m 0,0 km/h (0 Bft) N-NO 22 -3,2 C -1,9 C
11.12.2012 03:16 -1,8 C 91 % 1018,0 hPa 0,0 l/m 0,0 km/h (0 Bft) N-NO 22 -3,1 C -1,8 C
11.12.2012 03:21 -1,8 C 91 % 1017,9 hPa 0,0 l/m 0,0 km/h (0 Bft) N-NO 22 -3,1 C -1,8 C
11.12.2012 03:26 -1,8 C 91 % 1017,9 hPa 0,0 l/m 0,0 km/h (0 Bft) N-NO 22 -3,1 C -1,8 C
11.12.2012 03:31 -1,7 C 91 % 1017,9 hPa 0,0 l/m 0,0 km/h (0 Bft) N-NO 22 -3,0 C -1,7 C
11.12.2012 03:36 -1,7 C 91 % 1018,0 hPa 0,0 l/m 0,0 km/h (0 Bft) N-NO 22 -3,0 C -1,7 C
11.12.2012 03:41 -1,7 C 91 % 1018,0 hPa 0,0 l/m 0,0 km/h (0 Bft) N-NO 22 -3,0 C -1,7 C
11.12.2012 03:46 -1,7 C 91 % 1018,1 hPa 0,0 l/m 0,0 km/h (0 Bft) N-NO 22 -3,0 C -1,7 C
11.12.2012 03:51 -1,7 C 91 % 1018,1 hPa 0,0 l/m 0,0 km/h (0 Bft) N-NO 22 -3,0 C -1,7 C
11.12.2012 03:56 -1,7 C 91 % 1018,2 hPa 0,0 l/m 0,0 km/h (0 Bft) N-NO 22 -3,0 C -1,7 C
11.12.2012 04:01 -1,8 C 91 % 1018,1 hPa 0,0 l/m 0,0 km/h (0 Bft) N-NO 22 -3,1 C -1,8 C
11.12.2012 04:06 -1,8 C 91 % 1018,2 hPa 0,0 l/m 0,0 km/h (0 Bft) N-NO 22 -3,1 C -1,8 C
11.12.2012 04:11 -1,8 C 91 % 1018,3 hPa 0,0 l/m 0,0 km/h (0 Bft) N-NO 22 -3,1 C -1,8 C
11.12.2012 04:16 -1,9 C 91 % 1018,2 hPa 0,0 l/m 0,0 km/h (0 Bft) N-NO 22 -3,2 C -1,9 C
11.12.2012 04:21 -1,9 C 91 % 1018,3 hPa 0,0 l/m 0,0 km/h (0 Bft) N-NO 22 -3,2 C -1,9 C
11.12.2012 04:26 -1,9 C 91 % 1018,3 hPa 0,0 l/m 0,0 km/h (0 Bft) N-NO 22 -3,2 C -1,9 C
11.12.2012 04:31 -1,9 C 91 % 1018,1 hPa 0,0 l/m 0,0 km/h (0 Bft) N-NO 22 -3,2 C -1,9 C
11.12.2012 04:36 -1,9 C 91 % 1018,4 hPa 0,0 l/m 0,0 km/h (0 Bft) N-NO 22 -3,2 C -1,9 C
11.12.2012 04:41 -1,9 C 91 % 1018,5 hPa 0,0 l/m 0,0 km/h (0 Bft) N-NO 22 -3,2 C -1,9 C
11.12.2012 04:46 -1,8 C 91 % 1018,5 hPa 0,0 l/m 0,0 km/h (0 Bft) N-NO 22 -3,1 C -1,8 C
11.12.2012 04:51 -1,9 C 91 % 1018,3 hPa 0,0 l/m 0,0 km/h (0 Bft) N-NO 22 -3,2 C -1,9 C
11.12.2012 04:56 -1,8 C 91 % 1018,3 hPa 0,0 l/m 0,0 km/h (0 Bft) N-NO 22 -3,1 C -1,8 C
11.12.2012 05:01 -1,9 C 91 % 1018,4 hPa 0,0 l/m 0,0 km/h (0 Bft) N-NO 22 -3,2 C -1,9 C
11.12.2012 05:06 -1,9 C 91 % 1018,5 hPa 0,0 l/m 0,0 km/h (0 Bft) N-NO 22 -3,2 C -1,9 C
11.12.2012 05:11 -1,9 C 91 % 1018,5 hPa 0,0 l/m 0,0 km/h (0 Bft) N-NO 22 -3,2 C -1,9 C
11.12.2012 05:16 -1,9 C 91 % 1018,5 hPa 0,0 l/m 0,0 km/h (0 Bft) N-NO 22 -3,2 C -1,9 C
11.12.2012 05:21 -1,9 C 91 % 1018,6 hPa 0,0 l/m 0,0 km/h (0 Bft) N-NO 22 -3,2 C -1,9 C
11.12.2012 05:26 -1,9 C 91 % 1018,5 hPa 0,0 l/m 0,0 km/h (0 Bft) N-NO 22 -3,2 C -1,9 C
11.12.2012 05:31 -2,0 C 91 % 1018,7 hPa 0,0 l/m 0,0 km/h (0 Bft) N-NO 22 -3,3 C -2,0 C
11.12.2012 05:36 -2,0 C 91 % 1018,7 hPa 0,0 l/m 0,0 km/h (0 Bft) N-NO 22 -3,3 C -2,0 C
11.12.2012 05:41 -2,1 C 91 % 1018,7 hPa 0,0 l/m 0,0 km/h (0 Bft) N-NO 22 -3,4 C -2,1 C
11.12.2012 05:46 -2,1 C 91 % 1018,9 hPa 0,0 l/m 0,0 km/h (0 Bft) N-NO 22 -3,4 C -2,1 C
11.12.2012 05:51 -2,1 C 91 % 1018,8 hPa 0,0 l/m 0,0 km/h (0 Bft) N-NO 22 -3,4 C -2,1 C
11.12.2012 05:56 -2,1 C 91 % 1018,8 hPa 0,0 l/m 0,0 km/h (0 Bft) N-NO 22 -3,4 C -2,1 C
11.12.2012 06:01 -2,1 C 91 % 1018,9 hPa 0,0 l/m 0,0 km/h (0 Bft) N-NO 22 -3,4 C -2,1 C
11.12.2012 06:06 -2,1 C 90 % 1018,9 hPa 0,0 l/m 0,0 km/h (0 Bft) N-NO 22 -3,5 C -2,1 C
11.12.2012 06:11 -2,1 C 90 % 1018,8 hPa 0,0 l/m 0,0 km/h (0 Bft) N-NO 22 -3,5 C -2,1 C
11.12.2012 06:16 -2,2 C 90 % 1019,0 hPa 0,0 l/m 0,0 km/h (0 Bft) N-NO 22 -3,6 C -2,2 C
11.12.2012 06:21 -2,2 C 90 % 1019,0 hPa 0,0 l/m 0,0 km/h (0 Bft) N-NO 22 -3,6 C -2,2 C
11.12.2012 06:26 -2,2 C 90 % 1019,0 hPa 0,0 l/m 0,0 km/h (0 Bft) N-NO 22 -3,6 C -2,2 C
11.12.2012 06:31 -2,2 C 90 % 1019,2 hPa 0,0 l/m 0,0 km/h (0 Bft) N-NO 22 -3,6 C -2,2 C
11.12.2012 06:36 -2,2 C 91 % 1019,2 hPa 0,0 l/m 0,0 km/h (0 Bft) N-NO 22 -3,5 C -2,2 C
11.12.2012 06:41 -2,4 C 91 % 1019,2 hPa 0,0 l/m 0,0 km/h (0 Bft) N-NO 22 -3,7 C -2,4 C
11.12.2012 06:46 -2,4 C 91 % 1019,3 hPa 0,0 l/m 0,0 km/h (0 Bft) N-NO 22 -3,7 C -2,4 C
11.12.2012 06:51 -2,4 C 90 % 1019,3 hPa 0,0 l/m 0,0 km/h (0 Bft) N-NO 22 -3,8 C -2,4 C
11.12.2012 06:56 -2,4 C 90 % 1019,3 hPa 0,0 l/m 0,0 km/h (0 Bft) N-NO 22 -3,8 C -2,4 C
11.12.2012 07:01 -2,5 C 90 % 1019,3 hPa 0,0 l/m 0,0 km/h (0 Bft) N-NO 22 -3,9 C -2,5 C
11.12.2012 07:06 -2,5 C 90 % 1019,4 hPa 0,0 l/m 0,0 km/h (0 Bft) N-NO 22 -3,9 C -2,5 C
11.12.2012 07:11 -2,5 C 90 % 1019,3 hPa 0,0 l/m 0,0 km/h (0 Bft) N-NO 22 -3,9 C -2,5 C
11.12.2012 07:16 -2,4 C 90 % 1019,4 hPa 0,0 l/m 0,0 km/h (0 Bft) N-NO 22 -3,8 C -2,4 C
11.12.2012 07:21 -2,4 C 90 % 1019,6 hPa 0,0 l/m 0,0 km/h (0 Bft) N-NO 22 -3,8 C -2,4 C
11.12.2012 07:26 -2,4 C 90 % 1019,5 hPa 0,0 l/m 0,0 km/h (0 Bft) N-NO 22 -3,8 C -2,4 C
11.12.2012 07:31 -2,4 C 90 % 1019,6 hPa 0,0 l/m 0,0 km/h (0 Bft) N-NO 22 -3,8 C -2,4 C
11.12.2012 07:36 -2,3 C 90 % 1019,7 hPa 0,0 l/m 0,0 km/h (0 Bft) N-NO 22 -3,7 C -2,3 C
11.12.2012 07:41 -2,2 C 89 % 1019,5 hPa 0,0 l/m 0,0 km/h (0 Bft) N-NO 22 -3,8 C -2,2 C
11.12.2012 07:46 -2,1 C 89 % 1019,6 hPa 0,0 l/m 0,0 km/h (0 Bft) N-NO 22 -3,7 C -2,1 C
11.12.2012 07:51 -2,1 C 88 % 1019,7 hPa 0,0 l/m 0,0 km/h (0 Bft) N-NO 22 -3,8 C -2,1 C
11.12.2012 07:56 -2,1 C 87 % 1019,6 hPa 0,0 l/m 0,0 km/h (0 Bft) N-NO 22 -4,0 C -2,1 C
11.12.2012 08:01 -2,1 C 87 % 1019,7 hPa 0,0 l/m 0,0 km/h (0 Bft) N-NO 22 -4,0 C -2,1 C
11.12.2012 08:06 -2,2 C 87 % 1019,8 hPa 0,0 l/m 0,0 km/h (0 Bft) N-NO 22 -4,1 C -2,2 C
11.12.2012 08:11 -2,2 C 88 % 1020,0 hPa 0,0 l/m 0,0 km/h (0 Bft) N-NO 22 -3,9 C -2,2 C
11.12.2012 08:16 -2,2 C 88 % 1019,8 hPa 0,0 l/m 0,0 km/h (0 Bft) N-NO 22 -3,9 C -2,2 C
11.12.2012 08:21 -2,3 C 88 % 1019,9 hPa 0,0 l/m 0,0 km/h (0 Bft) N-NO 22 -4,0 C -2,3 C
11.12.2012 08:26 -2,4 C 88 % 1019,7 hPa 0,0 l/m 0,0 km/h (0 Bft) N-NO 22 -4,1 C -2,4 C
11.12.2012 08:31 -2,4 C 88 % 1019,7 hPa 0,0 l/m 0,0 km/h (0 Bft) N-NO 22 -4,1 C -2,4 C
11.12.2012 08:36 -2,4 C 88 % 1019,9 hPa 0,0 l/m 0,0 km/h (0 Bft) N-NO 22 -4,1 C -2,4 C
11.12.2012 08:41 -2,4 C 88 % 1019,9 hPa 0,0 l/m 0,0 km/h (0 Bft) N-NO 22 -4,1 C -2,4 C
11.12.2012 08:46 -2,4 C 88 % 1019,9 hPa 0,0 l/m 0,0 km/h (0 Bft) N-NO 22 -4,1 C -2,4 C
11.12.2012 08:51 -2,4 C 88 % 1020,0 hPa 0,0 l/m 0,0 km/h (0 Bft) N-NO 22 -4,1 C -2,4 C
11.12.2012 08:56 -2,3 C 88 % 1020,1 hPa 0,0 l/m 0,0 km/h (0 Bft) N-NO 22 -4,0 C -2,3 C
11.12.2012 09:01 -2,2 C 88 % 1020,0 hPa 0,0 l/m 0,0 km/h (0 Bft) N-NO 22 -3,9 C -2,2 C
11.12.2012 09:06 -2,2 C 88 % 1020,0 hPa 0,0 l/m 0,0 km/h (0 Bft) N-NO 22 -3,9 C -2,2 C
11.12.2012 09:11 -2,1 C 87 % 1020,0 hPa 0,0 l/m 0,0 km/h (0 Bft) N-NO 22 -4,0 C -2,1 C
11.12.2012 09:16 -2,1 C 87 % 1020,2 hPa 0,0 l/m 0,0 km/h (0 Bft) N-NO 22 -4,0 C -2,1 C
11.12.2012 09:21 -2,1 C 87 % 1020,3 hPa 0,0 l/m 0,0 km/h (0 Bft) N-NO 22 -4,0 C -2,1 C
11.12.2012 09:26 -2,0 C 87 % 1020,0 hPa 0,0 l/m 0,0 km/h (0 Bft) N-NO 22 -3,9 C -2,0 C
11.12.2012 09:31 -1,9 C 87 % 1020,1 hPa 0,0 l/m 0,0 km/h (0 Bft) N-NO 22 -3,8 C -1,9 C
11.12.2012 09:36 -1,8 C 87 % 1020,3 hPa 0,0 l/m 0,0 km/h (0 Bft) N-NO 22 -3,7 C -1,8 C
11.12.2012 09:41 -1,7 C 87 % 1020,2 hPa 0,0 l/m 0,0 km/h (0 Bft) N-NO 22 -3,6 C -1,7 C
11.12.2012 09:46 -1,7 C 87 % 1020,3 hPa 0,0 l/m 0,0 km/h (0 Bft) N-NO 22 -3,6 C -1,7 C
11.12.2012 09:51 -1,7 C 87 % 1020,4 hPa 0,0 l/m 0,0 km/h (0 Bft) N-NO 22 -3,6 C -1,7 C
11.12.2012 09:56 -1,6 C 87 % 1020,4 hPa 0,0 l/m 0,0 km/h (0 Bft) N-NO 22 -3,5 C -1,6 C
11.12.2012 10:01 -1,6 C 87 % 1020,3 hPa 0,0 l/m 0,0 km/h (0 Bft) N-NO 22 -3,5 C -1,6 C
11.12.2012 10:06 -1,6 C 87 % 1020,3 hPa 0,0 l/m 0,0 km/h (0 Bft) N-NO 22 -3,5 C -1,6 C
11.12.2012 10:11 -1,5 C 86 % 1020,4 hPa 0,0 l/m 0,0 km/h (0 Bft) N-NO 22 -3,5 C -1,5 C
11.12.2012 10:16 -1,4 C 86 % 1020,3 hPa 0,0 l/m 0,0 km/h (0 Bft) N-NO 22 -3,4 C -1,4 C
11.12.2012 10:21 -1,3 C 85 % 1020,3 hPa 0,0 l/m 0,0 km/h (0 Bft) N-NO 22 -3,5 C -1,3 C
11.12.2012 10:26 -1,2 C 84 % 1020,4 hPa 0,0 l/m 6,5 km/h (2 Bft) N-NO 22 -3,5 C -3,6 C
11.12.2012 10:31 -1,2 C 84 % 1020,4 hPa 0,0 l/m 19,1 km/h (3 Bft) N-NO 22 -3,5 C -6,6 C
11.12.2012 10:36 -1,1 C 83 % 1020,5 hPa 0,0 l/m 15,5 km/h (3 Bft) N-NO 22 -3,6 C -5,9 C
11.12.2012 10:41 -1,1 C 83 % 1020,4 hPa 0,0 l/m 7,9 km/h (2 Bft) N-NO 22 -3,6 C -4,0 C
11.12.2012 10:46 -1,1 C 84 % 1020,4 hPa 0,0 l/m 9,0 km/h (2 Bft) N-NO 22 -3,4 C -4,3 C
11.12.2012 10:51 -1,1 C 84 % 1020,4 hPa 0,0 l/m 9,0 km/h (2 Bft) N-NO 22 -3,4 C -4,3 C
11.12.2012 10:56 -1,0 C 84 % 1020,5 hPa 0,0 l/m 6,1 km/h (2 Bft) N-NO 22 -3,4 C -3,2 C
11.12.2012 11:01 -1,0 C 84 % 1020,4 hPa 0,0 l/m 9,4 km/h (2 Bft) N-NO 22 -3,4 C -4,3 C
11.12.2012 11:06 -0,9 C 85 % 1020,2 hPa 0,0 l/m 7,9 km/h (2 Bft) N-NO 22 -3,1 C -3,8 C
11.12.2012 11:11 -0,9 C 85 % 1020,4 hPa 0,0 l/m 6,5 km/h (2 Bft) N-NO 22 -3,1 C -3,3 C
11.12.2012 11:16 -0,8 C 85 % 1020,4 hPa 0,0 l/m 5,8 km/h (2 Bft) N-NO 22 -3,0 C -2,9 C
11.12.2012 11:21 -0,7 C 85 % 1020,4 hPa 0,0 l/m 3,2 km/h (1 Bft) N-NO 22 -2,9 C -0,7 C
11.12.2012 11:26 -0,6 C 85 % 1020,3 hPa 0,0 l/m 11,2 km/h (2 Bft) N-NO 22 -2,8 C -4,3 C
11.12.2012 11:31 -0,6 C 85 % 1020,3 hPa 0,0 l/m 6,1 km/h (2 Bft) N-NO 22 -2,8 C -2,8 C
11.12.2012 11:36 -0,5 C 86 % 1020,3 hPa 0,0 l/m 9,0 km/h (2 Bft) N-NO 22 -2,5 C -3,6 C
11.12.2012 11:41 -0,5 C 86 % 1020,2 hPa 0,0 l/m 6,5 km/h (2 Bft) N-NO 22 -2,5 C -2,8 C
11.12.2012 11:46 -0,6 C 86 % 1020,4 hPa 0,0 l/m 5,4 km/h (1 Bft) N-NO 22 -2,6 C -2,5 C
11.12.2012 11:51 -0,6 C 86 % 1020,2 hPa 0,0 l/m 6,1 km/h (2 Bft) N-NO 22 -2,6 C -2,8 C
11.12.2012 11:56 -0,6 C 86 % 1020,3 hPa 0,0 l/m 4,7 km/h (1 Bft) N-NO 22 -2,6 C -2,1 C
11.12.2012 12:01 -0,7 C 86 % 1020,4 hPa 0,0 l/m 6,1 km/h (2 Bft) N-NO 22 -2,7 C -2,9 C
11.12.2012 12:06 -0,7 C 85 % 1020,3 hPa 0,0 l/m 9,4 km/h (2 Bft) N-NO 22 -2,9 C -4,0 C
11.12.2012 12:11 -0,7 C 85 % 1020,4 hPa 0,0 l/m 5,4 km/h (1 Bft) N-NO 22 -2,9 C -2,6 C
11.12.2012 12:16 -0,6 C 85 % 1020,1 hPa 0,0 l/m 9,0 km/h (2 Bft) N-NO 22 -2,8 C -3,8 C
11.12.2012 12:21 -0,7 C 85 % 1020,2 hPa 0,0 l/m 6,8 km/h (2 Bft) N-NO 22 -2,9 C -3,1 C
11.12.2012 12:26 -0,7 C 85 % 1020,3 hPa 0,0 l/m 7,2 km/h (2 Bft) N-NO 22 -2,9 C -3,3 C
11.12.2012 12:31 -0,8 C 85 % 1020,2 hPa 0,0 l/m 4,0 km/h (1 Bft) N-NO 22 -3,0 C -0,8 C
11.12.2012 12:36 -0,7 C 85 % 1020,3 hPa 0,0 l/m 3,6 km/h (1 Bft) N-NO 22 -2,9 C -0,7 C
11.12.2012 12:41 -0,7 C 85 % 1020,2 hPa 0,0 l/m 5,0 km/h (1 Bft) N-NO 22 -2,9 C -2,4 C
11.12.2012 12:46 -0,7 C 85 % 1020,3 hPa 0,0 l/m 7,6 km/h (2 Bft) N-NO 22 -2,9 C -3,4 C
11.12.2012 12:51 -0,6 C 85 % 1020,4 hPa 0,0 l/m 16,9 km/h (3 Bft) N-NO 22 -2,8 C -5,5 C
11.12.2012 12:56 -0,6 C 85 % 1020,4 hPa 0,0 l/m 8,6 km/h (2 Bft) N-NO 22 -2,8 C -3,6 C
11.12.2012 13:01 -0,6 C 85 % 1020,3 hPa 0,0 l/m 5,8 km/h (2 Bft) N-NO 22 -2,8 C -2,6 C
11.12.2012 13:06 -0,5 C 85 % 1020,2 hPa 0,0 l/m 6,1 km/h (2 Bft) N-NO 22 -2,7 C -2,6 C
11.12.2012 13:11 -0,5 C 85 % 1020,3 hPa 0,0 l/m 10,4 km/h (2 Bft) N-NO 22 -2,7 C -4,0 C
11.12.2012 13:16 -0,5 C 84 % 1020,4 hPa 0,0 l/m 7,2 km/h (2 Bft) N-NO 22 -2,9 C -3,1 C
11.12.2012 13:21 -0,4 C 84 % 1020,4 hPa 0,0 l/m 6,8 km/h (2 Bft) N-NO 22 -2,8 C -2,8 C
11.12.2012 13:26 -0,4 C 84 % 1020,4 hPa 0,0 l/m 7,9 km/h (2 Bft) N-NO 22 -2,8 C -3,2 C
11.12.2012 13:31 -0,4 C 84 % 1020,4 hPa 0,0 l/m 10,1 km/h (2 Bft) N-NO 22 -2,8 C -3,8 C
11.12.2012 13:36 -0,3 C 84 % 1020,4 hPa 0,0 l/m 5,0 km/h (1 Bft) N-NO 22 -2,7 C -1,9 C
11.12.2012 13:41 -0,2 C 84 % 1020,4 hPa 0,0 l/m 0,0 km/h (0 Bft) N-NO 22 -2,6 C -0,2 C
11.12.2012 13:46 -0,2 C 84 % 1020,2 hPa 0,0 l/m 4,7 km/h (1 Bft) N-NO 22 -2,6 C -1,7 C
11.12.2012 13:51 -0,2 C 83 % 1020,3 hPa 0,0 l/m 4,0 km/h (1 Bft) N-NO 22 -2,7 C -0,2 C
11.12.2012 13:56 -0,2 C 83 % 1020,3 hPa 0,0 l/m 6,8 km/h (2 Bft) N-NO 22 -2,7 C -2,6 C
11.12.2012 14:01 -0,2 C 83 % 1020,3 hPa 0,0 l/m 15,8 km/h (3 Bft) N-NO 22 -2,7 C -4,8 C
11.12.2012 14:06 -0,4 C 83 % 1020,4 hPa 0,0 l/m 9,0 km/h (2 Bft) N-NO 22 -2,9 C -3,5 C
11.12.2012 14:11 -0,4 C 82 % 1020,4 hPa 0,0 l/m 4,0 km/h (1 Bft) N-NO 22 -3,1 C -0,4 C
11.12.2012 14:16 -0,5 C 82 % 1020,4 hPa 0,0 l/m 14,8 km/h (3 Bft) N-NO 22 -3,2 C -5,0 C
11.12.2012 14:21 -0,6 C 83 % 1020,4 hPa 0,0 l/m 16,6 km/h (3 Bft) N-NO 22 -3,1 C -5,4 C
11.12.2012 14:26 -0,6 C 83 % 1020,4 hPa 0,0 l/m 6,5 km/h (2 Bft) N-NO 22 -3,1 C -2,9 C
11.12.2012 14:31 -0,7 C 83 % 1020,4 hPa 0,0 l/m 6,1 km/h (2 Bft) N-NO 22 -3,2 C -2,9 C
11.12.2012 14:36 -0,7 C 83 % 1020,4 hPa 0,0 l/m 2,9 km/h (1 Bft) N-NO 22 -3,2 C -0,7 C
11.12.2012 14:41 -0,7 C 83 % 1020,5 hPa 0,0 l/m 6,5 km/h (2 Bft) N-NO 22 -3,2 C -3,0 C
11.12.2012 14:46 -0,8 C 83 % 1020,6 hPa 0,0 l/m 16,6 km/h (3 Bft) N-NO 22 -3,3 C -5,7 C
11.12.2012 14:51 -0,8 C 83 % 1020,5 hPa 0,0 l/m 8,6 km/h (2 Bft) N-NO 22 -3,3 C -3,9 C
11.12.2012 14:56 -0,9 C 83 % 1020,6 hPa 0,0 l/m 22,0 km/h (4 Bft) N-NO 22 -3,4 C -6,7 C
11.12.2012 15:01 -1,0 C 83 % 1020,7 hPa 0,0 l/m 14,4 km/h (3 Bft) N-NO 22 -3,5 C -5,5 C
11.12.2012 15:06 -1,0 C 84 % 1020,9 hPa 0,0 l/m 7,9 km/h (2 Bft) N-NO 22 -3,4 C -3,9 C
11.12.2012 15:11 -1,1 C 84 % 1020,9 hPa 0,0 l/m 10,8 km/h (2 Bft) N-NO 22 -3,4 C -4,8 C
11.12.2012 15:16 -1,1 C 84 % 1020,8 hPa 0,0 l/m 13,0 km/h (3 Bft) N-NO 22 -3,4 C -5,4 C
11.12.2012 15:21 -1,2 C 85 % 1021,0 hPa 0,0 l/m 15,5 km/h (3 Bft) N-NO 22 -3,4 C -6,0 C
11.12.2012 15:26 -1,2 C 85 % 1021,0 hPa 0,0 l/m 10,8 km/h (2 Bft) N-NO 22 -3,4 C -5,0 C
11.12.2012 15:31 -1,3 C 85 % 1020,9 hPa 0,0 l/m 9,7 km/h (2 Bft) N-NO 22 -3,5 C -4,8 C
11.12.2012 15:36 -1,3 C 85 % 1021,0 hPa 0,0 l/m 12,6 km/h (3 Bft) N-NO 22 -3,5 C -5,5 C
11.12.2012 15:41 -1,4 C 85 % 1020,9 hPa 0,0 l/m 7,9 km/h (2 Bft) N-NO 22 -3,6 C -4,3 C
11.12.2012 15:46 -1,4 C 85 % 1020,9 hPa 0,0 l/m 12,2 km/h (2 Bft) N-NO 22 -3,6 C -5,5 C
11.12.2012 15:51 -1,5 C 86 % 1020,9 hPa 0,0 l/m 5,0 km/h (1 Bft) N-NO 22 -3,5 C -3,3 C
11.12.2012 15:56 -1,5 C 86 % 1020,9 hPa 0,0 l/m 14,4 km/h (3 Bft) N-NO 22 -3,5 C -6,1 C
11.12.2012 16:01 -1,6 C 86 % 1021,0 hPa 0,0 l/m 6,1 km/h (2 Bft) N-NO 22 -3,6 C -3,9 C
11.12.2012 16:06 -1,6 C 86 % 1020,9 hPa 0,0 l/m 13,0 km/h (3 Bft) N-NO 22 -3,6 C -6,0 C
11.12.2012 16:11 -1,7 C 86 % 1020,8 hPa 0,0 l/m 9,4 km/h (2 Bft) N-NO 22 -3,7 C -5,2 C
11.12.2012 16:16 -1,7 C 86 % 1020,8 hPa 0,0 l/m 11,2 km/h (2 Bft) N-NO 22 -3,7 C -5,7 C
11.12.2012 16:21 -1,8 C 86 % 1020,8 hPa 0,0 l/m 7,6 km/h (2 Bft) N-NO 22 -3,8 C -4,7 C
11.12.2012 16:26 -1,8 C 87 % 1020,9 hPa 0,0 l/m 4,0 km/h (1 Bft) N-NO 22 -3,7 C -1,8 C
11.12.2012 16:31 -1,8 C 87 % 1020,9 hPa 0,0 l/m 8,6 km/h (2 Bft) N-NO 22 -3,7 C -5,0 C
11.12.2012 16:36 -1,8 C 87 % 1020,9 hPa 0,0 l/m 14,0 km/h (3 Bft) N-NO 22 -3,7 C -6,4 C
11.12.2012 16:41 -1,8 C 87 % 1020,9 hPa 0,0 l/m 19,8 km/h (3 Bft) N-NO 22 -3,7 C -7,5 C
11.12.2012 16:46 -1,8 C 87 % 1021,0 hPa 0,0 l/m 16,2 km/h (3 Bft) N-NO 22 -3,7 C -6,9 C
11.12.2012 16:51 -1,8 C 87 % 1020,9 hPa 0,0 l/m 10,8 km/h (2 Bft) N-NO 22 -3,7 C -5,7 C
11.12.2012 16:56 -1,8 C 87 % 1021,0 hPa 0,0 l/m 4,0 km/h (1 Bft) N-NO 22 -3,7 C -1,8 C
11.12.2012 17:01 -1,8 C 87 % 1021,0 hPa 0,0 l/m 4,0 km/h (1 Bft) N-NO 22 -3,7 C -1,8 C
11.12.2012 17:06 -1,8 C 87 % 1020,9 hPa 0,0 l/m 6,1 km/h (2 Bft) N-NO 22 -3,7 C -4,1 C
11.12.2012 17:11 -1,8 C 87 % 1021,1 hPa 0,0 l/m 13,0 km/h (3 Bft) N-NO 22 -3,7 C -6,2 C
11.12.2012 17:16 -1,9 C 87 % 1021,0 hPa 0,0 l/m 8,3 km/h (2 Bft) N-NO 22 -3,8 C -5,1 C
11.12.2012 17:21 -1,9 C 87 % 1021,0 hPa 0,0 l/m 3,6 km/h (1 Bft) N-NO 22 -3,8 C -1,9 C
11.12.2012 17:26 -1,9 C 87 % 1021,2 hPa 0,0 l/m 7,9 km/h (2 Bft) N-NO 22 -3,8 C -4,9 C
11.12.2012 17:31 -1,9 C 87 % 1021,1 hPa 0,0 l/m 11,9 km/h (2 Bft) N-NO 22 -3,8 C -6,1 C
11.12.2012 17:36 -1,9 C 86 % 1021,1 hPa 0,0 l/m 5,8 km/h (2 Bft) N-NO 22 -3,9 C -4,1 C
11.12.2012 17:41 -2,0 C 86 % 1021,1 hPa 0,0 l/m 7,2 km/h (2 Bft) N-NO 22 -4,0 C -4,8 C
11.12.2012 17:46 -2,1 C 86 % 1021,0 hPa 0,0 l/m 6,8 km/h (2 Bft) N-NO 22 -4,1 C -4,8 C
11.12.2012 17:51 -2,1 C 86 % 1021,1 hPa 0,0 l/m 7,6 km/h (2 Bft) N-NO 22 -4,1 C -5,1 C
11.12.2012 17:56 -2,1 C 86 % 1021,1 hPa 0,0 l/m 9,7 km/h (2 Bft) N-NO 22 -4,1 C -5,7 C
11.12.2012 18:01 -2,1 C 86 % 1021,0 hPa 0,0 l/m 13,3 km/h (3 Bft) N-NO 22 -4,1 C -6,6 C
11.12.2012 18:06 -2,1 C 86 % 1021,1 hPa 0,0 l/m 10,1 km/h (2 Bft) N-NO 22 -4,1 C -5,9 C
11.12.2012 18:11 -2,1 C 86 % 1021,1 hPa 0,0 l/m 7,2 km/h (2 Bft) N-NO 22 -4,1 C -4,9 C
11.12.2012 18:16 -2,1 C 86 % 1021,0 hPa 0,0 l/m 6,1 km/h (2 Bft) N-NO 22 -4,1 C -4,5 C
11.12.2012 18:21 -2,1 C 86 % 1021,1 hPa 0,0 l/m 16,6 km/h (3 Bft) N-NO 22 -4,1 C -7,3 C
11.12.2012 18:26 -2,1 C 86 % 1021,1 hPa 0,0 l/m 5,0 km/h (1 Bft) N-NO 22 -4,1 C -4,0 C
11.12.2012 18:31 -2,2 C 86 % 1021,2 hPa 0,0 l/m 12,2 km/h (2 Bft) N-NO 22 -4,2 C -6,5 C
11.12.2012 18:36 -2,1 C 86 % 1021,1 hPa 0,0 l/m 4,7 km/h (1 Bft) N-NO 22 -4,1 C -3,8 C
11.12.2012 18:41 -2,1 C 86 % 1021,0 hPa 0,0 l/m 2,2 km/h (1 Bft) N-NO 22 -4,1 C -2,1 C
11.12.2012 18:46 -2,1 C 86 % 1021,1 hPa 0,0 l/m 13,3 km/h (3 Bft) N-NO 22 -4,1 C -6,6 C
11.12.2012 18:51 -2,1 C 85 % 1021,1 hPa 0,0 l/m 9,4 km/h (2 Bft) N-NO 22 -4,3 C -5,6 C
11.12.2012 18:56 -2,1 C 85 % 1021,1 hPa 0,0 l/m 9,4 km/h (2 Bft) N-NO 22 -4,3 C -5,6 C
11.12.2012 19:01 -2,1 C 85 % 1021,1 hPa 0,0 l/m 12,2 km/h (2 Bft) N-NO 22 -4,3 C -6,4 C
11.12.2012 19:06 -2,1 C 85 % 1021,1 hPa 0,0 l/m 15,1 km/h (3 Bft) N-NO 22 -4,3 C -7,0 C
11.12.2012 19:11 -2,1 C 85 % 1021,1 hPa 0,0 l/m 7,2 km/h (2 Bft) N-NO 22 -4,3 C -4,9 C
11.12.2012 19:16 -2,1 C 85 % 1021,0 hPa 0,0 l/m 9,7 km/h (2 Bft) N-NO 22 -4,3 C -5,7 C
11.12.2012 19:21 -2,1 C 85 % 1021,0 hPa 0,0 l/m 7,2 km/h (2 Bft) N-NO 22 -4,3 C -4,9 C
11.12.2012 19:26 -2,2 C 85 % 1021,1 hPa 0,0 l/m 11,9 km/h (2 Bft) N-NO 22 -4,4 C -6,4 C
11.12.2012 19:31 -2,2 C 85 % 1021,1 hPa 0,0 l/m 6,5 km/h (2 Bft) N-NO 22 -4,4 C -4,8 C
11.12.2012 19:36 -2,2 C 85 % 1021,1 hPa 0,0 l/m 6,5 km/h (2 Bft) N-NO 22 -4,4 C -4,8 C
11.12.2012 19:41 -2,2 C 85 % 1021,1 hPa 0,0 l/m 5,8 km/h (2 Bft) N-NO 22 -4,4 C -4,5 C
11.12.2012 19:46 -2,2 C 85 % 1021,3 hPa 0,0 l/m 14,4 km/h (3 Bft) N-NO 22 -4,4 C -7,0 C
11.12.2012 19:51 -2,2 C 85 % 1021,4 hPa 0,0 l/m 8,3 km/h (2 Bft) N-NO 22 -4,4 C -5,4 C
11.12.2012 19:56 -2,2 C 85 % 1021,4 hPa 0,0 l/m 6,8 km/h (2 Bft) N-NO 22 -4,4 C -4,9 C
11.12.2012 20:01 -2,2 C 85 % 1021,4 hPa 0,0 l/m 5,4 km/h (1 Bft) N-NO 22 -4,4 C -4,3 C
11.12.2012 20:06 -2,2 C 85 % 1021,4 hPa 0,0 l/m 6,8 km/h (2 Bft) N-NO 22 -4,4 C -4,9 C
11.12.2012 20:11 -2,2 C 85 % 1021,4 hPa 0,0 l/m 6,5 km/h (2 Bft) N-NO 22 -4,4 C -4,8 C
11.12.2012 20:16 -2,2 C 85 % 1021,5 hPa 0,0 l/m 5,0 km/h (1 Bft) N-NO 22 -4,4 C -4,1 C
11.12.2012 20:21 -2,2 C 85 % 1021,5 hPa 0,0 l/m 8,6 km/h (2 Bft) N-NO 22 -4,4 C -5,5 C
11.12.2012 20:26 -2,2 C 84 % 1021,6 hPa 0,0 l/m 13,7 km/h (3 Bft) N-NO 22 -4,5 C -6,9 C
11.12.2012 20:31 -2,2 C 84 % 1021,5 hPa 0,0 l/m 7,2 km/h (2 Bft) N-NO 22 -4,5 C -5,0 C
11.12.2012 20:36 -2,2 C 84 % 1021,4 hPa 0,0 l/m 4,7 km/h (1 Bft) N-NO 22 -4,5 C -3,9 C
11.12.2012 20:41 -2,2 C 84 % 1021,4 hPa 0,0 l/m 16,9 km/h (3 Bft) N-NO 22 -4,5 C -7,5 C
11.12.2012 20:46 -2,2 C 84 % 1021,5 hPa 0,0 l/m 7,9 km/h (2 Bft) N-NO 22 -4,5 C -5,3 C
11.12.2012 20:51 -2,2 C 84 % 1021,5 hPa 0,0 l/m 16,2 km/h (3 Bft) N-NO 22 -4,5 C -7,4 C
11.12.2012 20:56 -2,3 C 84 % 1021,5 hPa 0,0 l/m 8,3 km/h (2 Bft) N-NO 22 -4,6 C -5,5 C
11.12.2012 21:01 -2,3 C 84 % 1021,4 hPa 0,0 l/m 5,0 km/h (1 Bft) N-NO 22 -4,6 C -4,2 C
11.12.2012 21:06 -2,3 C 84 % 1021,4 hPa 0,0 l/m 14,0 km/h (3 Bft) N-NO 22 -4,6 C -7,0 C
11.12.2012 21:11 -2,3 C 84 % 1021,4 hPa 0,0 l/m 11,9 km/h (2 Bft) N-NO 22 -4,6 C -6,6 C
11.12.2012 21:16 -2,3 C 83 % 1021,4 hPa 0,0 l/m 6,1 km/h (2 Bft) N-NO 22 -4,8 C -4,7 C
11.12.2012 21:21 -2,4 C 83 % 1021,4 hPa 0,0 l/m 14,0 km/h (3 Bft) N-NO 22 -4,9 C -7,2 C
11.12.2012 21:26 -2,4 C 83 % 1021,4 hPa 0,0 l/m 16,9 km/h (3 Bft) N-NO 22 -4,9 C -7,7 C
11.12.2012 21:31 -2,4 C 83 % 1021,4 hPa 0,0 l/m 15,8 km/h (3 Bft) N-NO 22 -4,9 C -7,5 C
11.12.2012 21:36 -2,4 C 83 % 1021,5 hPa 0,0 l/m 12,2 km/h (2 Bft) N-NO 22 -4,9 C -6,8 C
11.12.2012 21:41 -2,4 C 83 % 1021,6 hPa 0,0 l/m 5,4 km/h (1 Bft) N-NO 22 -4,9 C -4,5 C
11.12.2012 21:46 -2,4 C 83 % 1021,6 hPa 0,0 l/m 11,9 km/h (2 Bft) N-NO 22 -4,9 C -6,7 C
11.12.2012 21:51 -2,4 C 82 % 1021,8 hPa 0,0 l/m 17,3 km/h (3 Bft) N-NO 22 -5,0 C -7,8 C
11.12.2012 21:56 -2,4 C 82 % 1021,7 hPa 0,0 l/m 6,1 km/h (2 Bft) N-NO 22 -5,0 C -4,8 C
11.12.2012 22:01 -2,4 C 82 % 1021,5 hPa 0,0 l/m 10,4 km/h (2 Bft) N-NO 22 -5,0 C -6,3 C
11.12.2012 22:06 -2,4 C 82 % 1021,7 hPa 0,0 l/m 9,0 km/h (2 Bft) N-NO 22 -5,0 C -5,9 C
11.12.2012 22:11 -2,4 C 82 % 1021,8 hPa 0,0 l/m 15,1 km/h (3 Bft) N-NO 22 -5,0 C -7,4 C
11.12.2012 22:16 -2,4 C 82 % 1021,8 hPa 0,0 l/m 9,0 km/h (2 Bft) N-NO 22 -5,0 C -5,9 C
11.12.2012 22:21 -2,5 C 82 % 1021,8 hPa 0,0 l/m 9,7 km/h (2 Bft) N-NO 22 -5,1 C -6,2 C
11.12.2012 22:26 -2,5 C 82 % 1021,9 hPa 0,0 l/m 7,2 km/h (2 Bft) N-NO 22 -5,1 C -5,4 C
11.12.2012 22:31 -2,5 C 82 % 1021,9 hPa 0,0 l/m 14,0 km/h (3 Bft) N-NO 22 -5,1 C -7,3 C
11.12.2012 22:36 -2,6 C 82 % 1022,0 hPa 0,0 l/m 6,8 km/h (2 Bft) N-NO 22 -5,2 C -5,3 C
11.12.2012 22:41 -2,6 C 82 % 1021,9 hPa 0,0 l/m 4,7 km/h (1 Bft) N-NO 22 -5,2 C -4,4 C
11.12.2012 22:46 -2,6 C 82 % 1021,8 hPa 0,0 l/m 13,0 km/h (3 Bft) N-NO 22 -5,2 C -7,2 C
11.12.2012 22:51 -2,7 C 82 % 1021,9 hPa 0,0 l/m 6,5 km/h (2 Bft) N-NO 22 -5,3 C -5,3 C
11.12.2012 22:56 -2,7 C 82 % 1022,1 hPa 0,0 l/m 6,8 km/h (2 Bft) N-NO 22 -5,3 C -5,5 C
11.12.2012 23:01 -2,7 C 82 % 1022,0 hPa 0,0 l/m 7,6 km/h (2 Bft) N-NO 22 -5,3 C -5,8 C
11.12.2012 23:06 -2,7 C 82 % 1022,0 hPa 0,0 l/m 8,3 km/h (2 Bft) N-NO 22 -5,3 C -6,0 C
11.12.2012 23:11 -2,7 C 82 % 1022,1 hPa 0,0 l/m 11,9 km/h (2 Bft) N-NO 22 -5,3 C -7,0 C
11.12.2012 23:16 -2,8 C 82 % 1022,1 hPa 0,0 l/m 13,3 km/h (3 Bft) N-NO 22 -5,4 C -7,5 C
11.12.2012 23:21 -2,8 C 82 % 1022,0 hPa 0,0 l/m 4,7 km/h (1 Bft) N-NO 22 -5,4 C -4,6 C
11.12.2012 23:26 -2,9 C 82 % 1021,8 hPa 0,0 l/m 8,6 km/h (2 Bft) N-NO 22 -5,5 C -6,3 C
11.12.2012 23:31 -2,9 C 82 % 1022,0 hPa 0,0 l/m 8,3 km/h (2 Bft) N-NO 22 -5,5 C -6,2 C
11.12.2012 23:36 -2,9 C 82 % 1022,1 hPa 0,0 l/m 8,3 km/h (2 Bft) N-NO 22 -5,5 C -6,2 C
11.12.2012 23:41 -2,9 C 82 % 1021,9 hPa 0,0 l/m 2,5 km/h (1 Bft) N-NO 22 -5,5 C -2,9 C
11.12.2012 23:46 -2,9 C 82 % 1022,0 hPa 0,0 l/m 4,0 km/h (1 Bft) N-NO 22 -5,5 C -2,9 C
11.12.2012 23:51 -3,0 C 82 % 1021,9 hPa 0,0 l/m 6,8 km/h (2 Bft) N-NO 22 -5,6 C -5,8 C
11.12.2012 23:56 -3,0 C 82 % 1021,8 hPa 0,0 l/m 6,8 km/h (2 Bft) N-NO 22 -5,6 C -5,8 C
_ Min-Zeit 00:01 14:11 00:06 - 00:01 - - 23:51 21:51
Minimum _ -3,1 C 82 % 1016,6 hPa - 0,0 km/h (0 Bft) - - -5,6 C -7,8 C
_ Max-Zeit 13:41 02:56 22:56 00:01 14:56 - - 11:36 13:41
Maximum _ -0,2 C 91 % 1022,1 hPa 0,0 l/m 22,0 km/h
N-NO (4 Bft)
- - -2,5 C -0,2 C
Durchschnitt _ -1,9 C 87 % 1020,0 hPa #0,0 l/m 5,1 km/h (1 Bft) N-NO - -3,8 C -3,6 C
(c) by David Heller